Wind_Speed
13 15 16 16 16 16 16 17 18 18 19 19 19 20 20 21 21 21 21 21 22 22 23 23 23 23 23 24 24 24 24 24 25 25 25 26 26 26 26 26 27 27 27
12 14 16 17 17 17 17 18 19 19 20 21 21 22 22 22 23 23 24 24 25 25 26 26 27 27 27 28 28 28 28 29 29 29 30 30 30 30 30 30 31 31 31
11 14 16 17 17 18 18 19 20 20 21 22 23 23 23 23 24 26 26 27 27 28 28 29 30 30 30 31 31 32 32 32 32 33 33 34 34 34 34 34 34 34 34
10 11 13 15 16 18 18 19 20 21 22 23 24 24 25 25 27 27 28 29 30 31 31 32 32 33 33 34 34 35 35 35 36 36 37 37 37 38 38 38 38 38 38
10 11 12 13 14 16 17 18 20 21 22 22 23 24 26 27 29 30 31 31 32 32 33 34 35 35 36 37 37 38 38 38 39 39 39 40 40 40 40 41 41 40 40
11 12 13 14 14 15 16 18 19 21 22 22 24 25 27 28 29 30 32 33 33 33 34 35 36 37 38 38 39 40 40 40 40 41 42 42 42 42 42 43 43 43 43
12 13 14 15 16 16 17 18 19 21 22 23 24 25 26 27 29 30 31 33 34 35 36 37 38 39 40 42 43 43 43 43 43 43 44 43 44 45 45 45 45 46 46
14 15 15 15 16 17 18 19 20 22 23 24 25 27 28 29 30 31 33 35 36 37 38 39 40 41 41 42 43 43 43 43 44 45 46 45 46 47 47 47 47 47 47
16 16 17 17 17 18 19 21 22 23 24 26 27 28 30 31 33 35 36 37 39 39 40 40 41 42 43 43 44 44 45 47 47 47 48 49 49 48 49 49 49 49 49
18 18 19 19 20 21 22 22 23 24 25 27 28 30 32 33 34 35 37 38 39 40 41 42 42 44 44 44 45 46 47 48 48 48 49 50 50 50 51 51 51 51 51
21 21 21 22 23 24 24 24 25 26 27 29 30 31 33 34 36 36 38 39 40 41 42 43 44 46 47 47 47 47 48 49 49 50 50 51 51 51 51 52 52 53 53
23 23 23 24 25 26 26 27 27 28 30 31 32 34 35 36 37 39 40 41 42 43 44 45 45 46 47 48 48 48 49 50 50 51 51 52 53 53 54 55 56 56 56
24 25 26 26 26 27 27 28 29 30 31 33 34 35 37 38 39 41 42 43 44 45 46 47 49 50 51 51 51 52 52 53 53 54 54 54 54 55 55 56 56 57 58
26 26 26 27 27 27 28 29 30 31 33 34 36 37 39 40 42 43 44 45 46 48 49 50 51 53 54 54 55 56 56 57 57 57 57 57 57 57 57 57 57 58 58
26 26 27 28 28 28 29 30 32 33 34 36 37 39 40 41 42 44 45 46 48 50 52 53 55 56 57 57 58 58 58 58 58 57 57 57 57 57 57 57 57 58 58
26 26 27 28 28 30 31 33 34 35 36 38 39 41 42 44 45 47 48 50 51 52 53 54 55 56 57 57 57 57 57 57 57 57 57 57 57 57 57 57 57 57 57
26 27 28 29 30 31 33 35 36 37 39 41 42 44 45 47 48 50 51 52 53 54 54 55 55 55 56 56 56 56 56 56 55 55 56 56 56 56 56 55 55 55 54
27 28 29 30 32 33 35 37 39 41 42 44 45 47 49 50 51 52 53 54 54 53 54 54 54 53 53 53 53 53 53 53 53 52 52 52 51 51 50 50 50 49 48
28 30 31 33 34 36 38 40 42 44 45 47 49 50 50 51 51 52 52 52 52 51 51 51 50 50 49 49 49 48 48 48 47 46 46 45 45 44 44 44 43 42 42
30 32 34 36 38 39 41 42 44 46 48 49 50 50 50 50 50 49 48 48 48 47 46 46 45 45 44 44 43 43 42 42 41 40 40 40 39 39 39 38 38 38 37
32 34 36 38 40 41 43 45 46 47 48 48 48 48 48 47 46 46 45 44 43 43 41 40 40 40 39 38 38 38 37 37 36 36 35 35 35 34 34 34 34 33 32
35 37 38 40 41 43 44 46 46 46 46 46 46 45 44 43 43 42 41 40 39 38 37 36 36 35 35 34 34 34 33 33 32 32 31 31 31 31 31 30 29 28 28
37 39 40 42 43 43 44 44 44 44 43 43 42 42 41 40 39 38 38 37 36 35 34 34 33 33 32 32 31 31 30 29 28 27 27 27 27 27 26 25 24 24 23
39 40 41 42 42 43 42 42 41 41 40 39 39 38 38 37 37 36 35 33 33 32 32 32 32 31 30 30 29 28 27 26 25 24 24 24 24 23 22 21 20 20 20
40 40 41 41 41 41 40 39 38 38 37 37 36 36 35 34 33 32 32 31 31 31 31 30 29 29 28 27 25 25 24 23 22 21 21 21 21 19 18 18 18 19 19
40 40 40 40 39 38 37 36 36 35 34 34 33 33 32 32 31 31 30 30 29 29 28 28 27 27 26 25 24 23 21 21 20 19 19 19 18 17 17 17 17 18 18
Wind_Direction
227 225 224 225 227 228 232 234 234 238 240 243 245 246 248 251 254 256 258 259 260 262 264 267 268 269 272 274 276 278 279 279 279 279 279 278 278 278 278 278 279 278 277
232 229 228 229 230 233 239 240 240 244 247 249 250 250 251 254 257 259 261 262 263 264 266 268 270 271 272 273 274 276 277 278 278 278 278 277 277 277 277 277 277 277 277
244 242 237 235 238 242 244 246 247 248 250 253 253 253 255 258 260 263 264 264 265 266 268 269 270 271 272 272 274 274 276 277 277 277 277 277 276 276 276 276 276 276 277
250 248 245 243 245 246 249 251 252 254 255 257 256 256 258 261 262 264 266 267 267 268 269 270 271 271 272 272 273 273 274 276 276 276 277 277 276 276 275 275 275 276 276
263 257 255 253 252 251 253 254 255 256 257 262 262 262 263 264 264 266 268 270 271 271 271 271 272 272 272 273 273 273 274 275 275 275 275 276 276 276 276 275 274 274 274
270 267 264 258 256 255 257 260 261 261 264 267 268 269 268 269 269 270 271 273 274 273 273 273 274 274 275 276 276 275 274 274 275 275 275 275 275 275 276 275 274 274 274
271 271 268 263 261 261 263 264 265 266 268 269 271 272 273 273 273 274 275 276 276 276 276 277 276 277 277 277 277 277 277 275 274 273 274 275 275 275 274 273 273 274 275
270 271 268 268 268 267 268 269 270 271 272 272 274 275 276 276 277 277 277 277 278 277 277 277 277 278 278 279 278 276 276 276 275 275 274 274 275 275 274 274 273 273 274
272 271 268 267 270 272 273 275 274 273 274 275 276 277 277 278 278 279 279 279 279 279 278 277 277 277 278 280 281 279 278 278 277 277 276 275 275 275 275 275 275 274 274
272 271 271 269 272 275 275 276 276 275 276 277 277 277 278 279 280 282 282 281 280 280 280 279 279 279 280 282 281 280 279 279 279 278 277 277 277 276 276 276 277 277 276
269 270 271 271 272 274 274 275 276 276 278 278 279 279 279 280 281 281 281 281 280 280 280 281 281 279 280 280 281 280 279 279 279 279 278 278 278 277 276 277 277 277 277
267 269 271 272 272 273 274 275 276 277 279 280 280 280 281 281 282 282 282 281 282 282 281 281 280 280 281 280 280 281 280 279 279 279 279 279 279 279 278 278 278 278 277
269 271 273 274 273 272 274 276 278 279 280 281 282 282 282 283 283 284 284 284 283 283 282 281 281 281 282 281 282 282 281 280 280 280 280 280 280 280 279 279 279 279 279
269 272 273 274 275 276 277 279 280 281 283 284 284 284 284 284 284 285 284 284 284 283 283 282 282 282 281 281 282 282 282 281 281 281 281 281 280 280 280 280 280 280 281
270 273 275 277 277 278 280 283 284 284 285 285 286 286 286 286 286 286 286 285 285 285 285 284 284 284 283 283 283 283 282 282 282 282 281 281 281 281 281 281 281 281 281
273 275 277 278 280 282 284 285 286 288 288 288 289 289 289 289 289 288 288 287 287 287 287 286 286 285 285 284 284 284 283 283 283 282 282 282 281 281 282 282 282 281 282
274 277 279 282 284 286 288 289 290 290 291 291 291 291 291 291 291 290 290 290 290 289 289 288 287 286 286 285 285 284 284 284 283 283 283 283 282 282 282 281 282 282 282
278 281 283 286 288 289 291 292 293 293 293 293 293 293 294 293 293 293 293 293 292 291 291 290 289 288 287 286 286 285 285 284 283 283 283 283 283 282 282 282 281 282 282
282 284 287 289 291 293 294 294 295 295 295 296 296 296 296 296 296 296 295 294 294 293 292 291 290 289 289 288 287 287 286 285 284 284 283 283 283 283 282 281 281 281 282
286 289 291 292 294 295 296 296 297 298 298 298 298 299 298 298 298 298 297 297 297 296 295 294 293 292 291 290 289 288 287 286 285 284 284 284 283 283 282 281 281 281 282
292 293 294 295 296 297 298 298 299 300 300 300 300 301 300 300 300 300 300 300 300 299 298 297 296 295 294 293 292 290 289 288 286 285 284 283 284 284 283 281 281 281 281
295 296 296 297 298 299 299 300 300 301 302 302 302 302 302 302 302 302 301 301 301 300 300 300 299 299 297 296 295 293 292 290 289 288 287 285 285 285 285 283 282 282 282
297 297 298 298 299 300 301 301 302 302 303 304 304 304 303 303 303 302 302 302 302 302 303 302 302 300 298 298 297 295 293 291 291 290 290 289 289 289 287 285 283 282 281
298 299 299 300 301 302 302 303 303 304 304 305 305 305 304 304 304 304 303 303 303 303 303 303 303 301 300 300 299 297 295 294 292 292 292 292 292 291 289 286 284 283 284
300 300 301 302 302 303 304 304 304 305 305 306 306 306 306 305 305 304 304 304 304 304 304 304 304 304 303 303 301 299 297 295 293 293 293 294 295 294 290 287 286 286 287
301 301 302 303 304 304 304 304 304 305 306 307 307 308 307 307 306 306 306 306 306 306 306 307 307 306 305 304 303 301 298 297 296 295 295 296 295 294 293 291 290 290 289
Height
5833 5836 5838 5840 5842 5844 5846 5848 5850 5852 5853 5855 5856 5857 5859 5860 5860 5861 5861 5862 5862 5862 5863 5863 5863 5863 5862 5862 5862 5861 5860 5860 5859 5858 5857 5856 5856 5855 5854 5853 5853 5852 5851
5831 5833 5836 5838 5840 5841 5843 5845 5846 5848 5849 5850 5851 5852 5853 5854 5855 5855 5856 5856 5856 5856 5857 5857 5857 5856 5856 5856 5855 5855 5854 5853 5852 5851 5850 5849 5848 5848 5847 5846 5845 5844 5844
5830 5831 5833 5835 5836 5838 5839 5841 5842 5843 5844 5845 5846 5847 5848 5848 5849 5849 5849 5849 5850 5850 5850 5850 5849 5849 5849 5848 5848 5847 5846 5845 5844 5843 5842 5841 5840 5839 5839 5838 5837 5836 5835
5828 5828 5830 5831 5832 5834 5835 5836 5837 5838 5839 5840 5840 5841 5842 5842 5842 5842 5842 5842 5842 5842 5842 5842 5841 5841 5840 5840 5839 5838 5837 5837 5835 5834 5833 5832 5831 5830 5829 5828 5827 5827 5826
5825 5826 5827 5827 5828 5829 5830 5831 5832 5833 5834 5834 5835 5835 5835 5835 5835 5835 5835 5835 5834 5833 5833 5833 5832 5831 5831 5830 5830 5829 5828 5827 5825 5824 5823 5822 5821 5819 5818 5817 5817 5816 5815
5823 5823 5823 5823 5824 5825 5826 5827 5827 5828 5828 5828 5828 5828 5828 5828 5828 5828 5827 5827 5826 5825 5824 5823 5822 5822 5821 5820 5819 5817 5817 5816 5814 5813 5812 5811 5810 5808 5807 5806 5805 5804 5804
5820 5819 5819 5819 5820 5821 5822 5822 5822 5823 5823 5822 5822 5821 5821 5821 5821 5820 5819 5818 5817 5816 5815 5813 5812 5811 5810 5808 5807 5806 5805 5803 5802 5801 5800 5799 5798 5796 5795 5793 5792 5791 5791
5816 5816 5815 5815 5816 5816 5817 5817 5817 5817 5817 5816 5815 5815 5814 5814 5813 5812 5811 5809 5808 5806 5805 5803 5802 5800 5799 5797 5795 5794 5792 5791 5789 5788 5787 5786 5785 5783 5781 5780 5779 5778 5777
5812 5811 5811 5811 5811 5811 5812 5811 5811 5811 5810 5809 5809 5808 5807 5806 5805 5803 5802 5800 5798 5796 5794 5792 5791 5789 5787 5785 5783 5781 5780 5778 5776 5775 5773 5772 5770 5769 5767 5766 5765 5763 5763
5807 5806 5806 5806 5806 5806 5806 5805 5805 5804 5803 5802 5801 5800 5798 5797 5795 5794 5792 5790 5788 5786 5783 5781 5779 5777 5775 5772 5770 5769 5767 5765 5763 5761 5759 5757 5756 5754 5753 5751 5750 5748 5747
5801 5801 5801 5801 5800 5800 5799 5799 5798 5797 5795 5794 5792 5791 5789 5787 5786 5784 5782 5779 5777 5775 5772 5770 5767 5765 5762 5759 5757 5755 5753 5751 5748 5746 5744 5742 5740 5739 5737 5736 5734 5733 5731
5795 5795 5795 5794 5794 5793 5792 5791 5790 5789 5787 5786 5784 5782 5780 5778 5776 5773 5771 5769 5766 5764 5761 5758 5755 5752 5749 5747 5744 5741 5739 5736 5734 5731 5729 5727 5725 5723 5721 5719 5717 5716 5714
5789 5789 5788 5787 5786 5785 5784 5783 5782 5780 5779 5777 5775 5773 5770 5768 5765 5763 5760 5757 5754 5751 5748 5745 5742 5739 5735 5733 5730 5727 5724 5722 5719 5716 5714 5711 5709 5706 5704 5702 5700 5698 5697
5782 5782 5781 5780 5779 5778 5777 5775 5774 5772 5770 5767 5765 5762 5760 5757 5754 5751 5748 5745 5741 5738 5734 5731 5727 5724 5720 5717 5714 5711 5708 5705 5702 5699 5697 5694 5692 5689 5687 5685 5682 5680 5679
5775 5774 5773 5772 5771 5769 5768 5766 5764 5762 5760 5757 5755 5752 5748 5745 5741 5738 5734 5730 5727 5723 5719 5715 5711 5708 5704 5700 5697 5694 5690 5687 5684 5681 5679 5676 5674 5671 5669 5666 5664 5663 5661
5767 5766 5765 5764 5762 5761 5759 5757 5754 5752 5749 5746 5743 5739 5736 5732 5728 5724 5720 5716 5711 5707 5703 5699 5695 5690 5686 5683 5679 5675 5672 5669 5666 5663 5660 5658 5655 5653 5651 5649 5646 5645 5643
5759 5758 5757 5755 5753 5751 5749 5746 5744 5741 5737 5734 5730 5726 5722 5718 5714 5709 5705 5700 5696 5691 5687 5682 5678 5673 5669 5665 5661 5658 5654 5651 5648 5645 5643 5640 5637 5635 5633 5631 5628 5626 5624
5751 5750 5748 5746 5744 5741 5738 5735 5732 5729 5725 5721 5717 5713 5708 5703 5699 5694 5689 5684 5679 5674 5669 5665 5660 5656 5652 5648 5644 5641 5637 5634 5631 5628 5626 5623 5621 5618 5616 5613 5611 5609 5607
5743 5742 5739 5737 5734 5731 5728 5724 5720 5716 5712 5707 5703 5698 5693 5688 5683 5678 5672 5667 5662 5657 5653 5648 5644 5640 5636 5632 5628 5625 5621 5618 5615 5612 5610 5607 5605 5603 5601 5598 5596 5594 5592
5735 5732 5730 5727 5724 5720 5716 5712 5708 5703 5698 5693 5688 5683 5678 5673 5668 5663 5658 5652 5647 5642 5637 5633 5629 5625 5621 5617 5613 5610 5606 5603 5601 5598 5596 5593 5591 5589 5587 5585 5583 5582 5580
5725 5723 5719 5716 5713 5708 5704 5700 5695 5690 5685 5680 5675 5669 5664 5659 5654 5649 5644 5639 5634 5629 5624 5620 5615 5611 5608 5604 5600 5597 5594 5591 5588 5586 5583 5581 5579 5577 5575 5573 5571 5570 5568
5715 5712 5709 5705 5701 5697 5692 5687 5683 5677 5672 5667 5662 5657 5652 5646 5641 5636 5631 5627 5622 5617 5613 5609 5604 5600 5596 5593 5589 5586 5583 5580 5577 5575 5572 5570 5568 5566 5564 5562 5560 5559 5558
5705 5701 5698 5694 5690 5685 5680 5675 5670 5665 5660 5655 5650 5645 5640 5635 5630 5625 5621 5616 5612 5607 5603 5599 5594 5590 5586 5583 5579 5576 5573 5571 5568 5565 5563 5561 5558 5556 5554 5552 5551 5550 5549
5694 5690 5686 5682 5678 5673 5669 5664 5659 5654 5649 5644 5639 5634 5629 5624 5620 5615 5611 5606 5602 5598 5594 5589 5585 5581 5577 5574 5570 5567 5564 5562 5559 5557 5555 5553 5550 5548 5546 5545 5544 5543 5542
5683 5679 5675 5671 5666 5662 5657 5652 5648 5643 5639 5634 5629 5624 5619 5615 5610 5606 5601 5597 5593 5589 5585 5581 5577 5573 5569 5566 5562 5560 5557 5554 5552 5550 5548 5546 5543 5541 5540 5538 5537 5536 5535
5672 5668 5664 5660 5655 5651 5646 5642 5638 5633 5629 5624 5620 5615 5611 5606 5602 5597 5593 5589 5585 5581 5577 5573 5570 5566 5562 5559 5556 5553 5550 5548 5546 5543 5541 5539 5537 5536 5534 5533 5531 5530 5529